sat.trackr.live / text

‹ back to catalog

STARLINK-36561

NORAD 67537 · 2026-014F

PAYLOAD ACTIVE UNKNOWN

§ Identity

Operator
Country
US
Launch date
2026-01-22
Launch site
AFWTR
Launch vehicle
Mass (kg)
RCS (m²)

Purposes: comms

External: N2YO · Heavens-Above · Gunter

§ Orbital elements

Epoch: 2026-05-25T02:28:31.296000Z

Period
93.91 min
Inclination
97.2864°
Eccentricity
0.0001646
Mean motion
15.33459763 rev/d
Perigee alt
464.4 km
Apogee alt
466.6 km
Semi-major
6,843.6 km
B*
6.1201e-4
RAAN
32.1436°
Arg perigee
72.0199°
Mean anomaly
288.1223°
Rev number
2,049

§ Raw data

STARLINK-365611 67537U 26014F   26145.10314000  .00019744  00000+0  61201-3 0  99952 67537  97.2864  32.1436 0001646  72.0199 288.1223 15.33459763 20497

JSON: /api/v1/satellites/67537 · /tle

For live sub-satellite position, see the globe view (requires WebGL).

§ Visibility from observer

Set your observer location to see the next 7 days of passes ≥ 10°. The values pass through the URL so the page stays shareable.

No JS? Fill the form by hand. The geolocation button needs JavaScript.